EUTELSAT 8 WEST B

Last updated on Wed Oct 15 2025 00:02:47 GMT+0000 (Coordinated Universal Time)

1 40875U 15039B 25287.27079150 -.00000080 00000+0 00000+0 0 9994 2 40875 0.0681 5.3069 0003791 199.6049 267.6511 1.00271546 37196
UTC large
Height (km)
Speed (km/s)
/
Latitude / Longitude
Inclination (degrees)
Orbital Period (minutes)
Azimuth
Elevation
Range (km)
Doppler Factor

Next 0 passes for location: London (51.5072 / 0.1276)

Sorry there are no passes over London.